Find Starlink 31180

NORAD ID: 58732 Int'l Des: 2024-005 Owner: SPXS Country: US Constellation: starlink operational
LEOCIRCULAR

現在のビュー

3D地球を読み込み中...

About Starlink 31180

Starlink 31180 (NORAD 58732) is a starlink constellation satellite (v2 mini) launched Jan 7, 2024 by SPXS of US. It operates in LEO, CIRCULAR orbit with a mass of 730.00 kg.

Starlink 31180について

説明を読み込み中...

次回通過

Passes for default location (London). Set your location on the main map for personalized predictions.

高度履歴

Loading altitude history...

軌道要素

1 58732U 24005E 26167.29007664 .00012337 00000-0 45780-3 0 9995
2 58732 42.9989 22.8906 0000901 269.3067 90.7681 15.27528841135517
Epoch: Jun 16, 2026 • Age: 13 hours

現在のステータス

高度 483.0 km
速度 7.63 km/s
衛星直下点 -0.53°S, 178.4°W
打ち上げ日 Jan 7, 2024
運用期間 2.4 years
タイプ internet

技術仕様

分類 Payload
質量 730.00 kg
乾燥質量 700.00 kg
総質量 730.00 kg
長さ 0.30 m
直径 4.10 m
スパン 29.00 m
形状 Box + pan
製造者 SPXS
バスタイプ Starlink V2M
フェーズステータス In Orbit
所有者/国 SPXS/US

Most Searched